Paynesville, MN

10:54 PM CST on December 07, 2016 (GMT -0600)
Paynesville

Weather History for KPEX - December, 2013

Change the Weather History Date:

Wednesday, December 11, 2013

  Actual Average (KLJF) Record (KLJF)
Temperature  
Mean Temperature -8 °F -  
Max Temperature 0 °F 27 °F 47 °F (1949)
Min Temperature -17 °F 9 °F -13 °F (1961)
Degree Days  
Heating Degree Days 74    
Moisture  
Dew Point -14 °F    
Average Humidity 72    
Maximum Humidity 79    
Minimum Humidity 63    
Precipitation  
Precipitation 0.00 in - - ()
Sea Level Pressure  
Sea Level Pressure 30.40 in    
Wind  
Wind Speed 7 mph (SW)    
Max Wind Speed 12 mph    
Max Gust Speed 16 mph    
Visibility 10 miles    
Events      
Averages and records for this station are not official NWS values.
T = Trace of Precipitation, MM = Missing Value Source: NWS Daily Summary

Daily Weather History Graph

Daily Weather History Graph

Search for Another Location

Airport or City:

Trip Planner

Search our weather history database for the weather conditions in past years. The results will help you decide how hot, cold, wet, or windy it might be!

Date:

Astronomy

Dec. 11, 2013 Rise Set
Actual Time 7:48 AM CST 4:35 PM CST
Civil Twilight 7:14 AM CST 5:09 PM CST
Nautical Twilight 6:37 AM CST 5:47 PM CST
Astronomical Twilight 6:01 AM CST 6:23 PM CST
Moon 1:21 PM CST (12/11) 1:57 AM CST (12/11)
Length of Visible Light 9h 55m
Length of Day
8h 47m
Waxing Gibbous, 72% of the Moon is Illuminated
Dec 11
Waxing Gibbous
Dec 17
Full
Dec 25
Last Quarter
Jan 1
New
Jan 7
First Quarter

Hourly Weather History & Observations

Time (CST) Temp. Windchill Dew Point Humidity Pressure Visibility Wind Dir Wind Speed Gust Speed Precip Events Conditions
12:13 AM -4.0 °F -20.2 °F -11.7 °F 69% 30.31 in 10.0 mi NW 9.2 mph - N/A   Clear
12:33 AM -4.9 °F -21.3 °F -12.6 °F 69% 30.32 in 10.0 mi NW 9.2 mph - N/A   Clear
12:53 AM -5.3 °F -22.8 °F -13.2 °F 69% 30.33 in 10.0 mi NW 10.4 mph 16.1 mph N/A   Clear
1:12 AM -6.0 °F -20.1 °F -13.9 °F 69% 30.33 in 10.0 mi NW 6.9 mph - N/A   Clear
1:33 AM -7.6 °F -18.8 °F -14.8 °F 71% 30.34 in 10.0 mi WNW 4.6 mph - N/A   Clear
1:53 AM -8.0 °F -16.9 °F -15.0 °F 71% 30.36 in 10.0 mi WNW 3.5 mph - N/A   Clear
2:13 AM -9.2 °F -18.4 °F -16.4 °F 71% 30.36 in 10.0 mi West 3.5 mph - N/A   Clear
2:32 AM -10.8 °F - -16.2 °F 77% 30.38 in 10.0 mi Calm Calm - N/A   Clear
2:53 AM -11.4 °F -26.7 °F -17.7 °F 74% 30.38 in 10.0 mi West 6.9 mph - N/A   Clear
3:13 AM -10.5 °F -24.0 °F -16.2 °F 76% 30.39 in 10.0 mi West 5.8 mph - N/A   Clear
3:32 AM -13.2 °F - -18.9 °F 75% 30.40 in 10.0 mi Calm Calm - N/A   Clear
3:53 AM -14.1 °F -28.3 °F -18.9 °F 79% 30.40 in 10.0 mi WSW 5.8 mph - N/A   Clear
4:12 AM -14.3 °F -31.5 °F -19.5 °F 77% 30.40 in 10.0 mi West 8.1 mph - N/A   Clear
4:33 AM -16.8 °F -34.6 °F -21.5 °F 79% 30.41 in 10.0 mi West 8.1 mph - N/A   Clear
4:52 AM -15.7 °F -31.9 °F -20.4 °F 79% 30.42 in 10.0 mi WSW 6.9 mph - N/A   Clear
5:13 AM -14.6 °F -32.0 °F -19.3 °F 79% 30.43 in 10.0 mi WSW 8.1 mph - N/A   Clear
5:32 AM -16.8 °F -33.2 °F -22.2 °F 76% 30.43 in 10.0 mi West 6.9 mph - N/A   Clear
5:53 AM -16.2 °F -34.0 °F -21.1 °F 79% 30.44 in 10.0 mi West 8.1 mph - N/A   Clear
6:13 AM -15.7 °F -31.9 °F -20.6 °F 79% 30.45 in 10.0 mi West 6.9 mph - N/A   Clear
6:32 AM -15.2 °F -25.2 °F -20.4 °F 77% 30.45 in 10.0 mi West 3.5 mph - N/A   Clear
6:53 AM -16.4 °F - -21.6 °F 77% 30.46 in 10.0 mi Calm Calm - N/A   Clear
7:58 AM -17.5 °F -32.3 °F -22.4 °F 79% 30.47 in 10.0 mi WSW 5.8 mph - N/A   Clear
8:12 AM -16.6 °F -29.3 °F -22.0 °F 76% 30.48 in 10.0 mi SW 4.6 mph - N/A   Clear
8:33 AM -15.9 °F -32.1 °F -21.3 °F 77% 30.48 in 10.0 mi WSW 6.9 mph - N/A   Clear
8:53 AM -16.6 °F -26.8 °F -22.0 °F 76% 30.49 in 10.0 mi West 3.5 mph - N/A   Clear
9:12 AM -13.9 °F -28.1 °F -18.8 °F 79% 30.49 in 10.0 mi West 5.8 mph - N/A   Clear
9:33 AM -11.7 °F -29.7 °F -16.8 °F 78% 30.50 in 10.0 mi West 9.2 mph - N/A   Clear
9:53 AM -10.1 °F -28.8 °F -15.7 °F 76% 30.51 in 10.0 mi West 10.4 mph - N/A   Clear
10:12 AM -8.9 °F -23.6 °F -15.3 °F 73% 30.51 in 10.0 mi West 6.9 mph - N/A   Clear
10:33 AM -8.0 °F -22.5 °F -14.8 °F 72% 30.51 in 10.0 mi West 6.9 mph - N/A   Clear
10:53 AM -7.6 °F -20.6 °F -14.8 °F 71% 30.51 in 10.0 mi WSW 5.8 mph - N/A   Clear
11:12 AM -6.7 °F -21.0 °F -14.1 °F 70% 30.50 in 10.0 mi West 6.9 mph - N/A   Clear
11:33 AM -5.4 °F -19.5 °F -13.9 °F 67% 30.50 in 10.0 mi WSW 6.9 mph - N/A   Clear
11:53 AM -5.1 °F -20.4 °F -13.2 °F 68% 30.49 in 10.0 mi SW 8.1 mph - N/A   Clear
12:12 PM -4.4 °F -18.2 °F -13.4 °F 65% 30.48 in 10.0 mi WSW 6.9 mph - N/A   Clear
12:33 PM -4.0 °F -19.0 °F -13.2 °F 65% 30.47 in 10.0 mi WSW 8.1 mph - N/A   Clear
12:53 PM -4.0 °F -17.8 °F -13.4 °F 64% 30.46 in 10.0 mi SW 6.9 mph - N/A   Clear
1:13 PM -3.1 °F -19.1 °F -13.0 °F 63% 30.46 in 10.0 mi SW 9.2 mph - N/A   Clear
1:32 PM -3.1 °F -20.1 °F -12.6 °F 64% 30.46 in 10.0 mi SW 10.4 mph - N/A   Clear
1:53 PM -3.1 °F -19.1 °F -12.5 °F 64% 30.45 in 10.0 mi SW 9.2 mph - N/A   Clear
2:12 PM -3.1 °F -19.1 °F -12.5 °F 64% 30.45 in 10.0 mi SW 9.2 mph - N/A   Clear
2:33 PM -3.1 °F -19.1 °F -13.0 °F 63% 30.44 in 10.0 mi WSW 9.2 mph - N/A   Clear
2:53 PM -2.7 °F -18.6 °F -12.6 °F 63% 30.44 in 10.0 mi WSW 9.2 mph - N/A   Clear
3:12 PM -3.1 °F -17.9 °F -13.0 °F 63% 30.44 in 10.0 mi WSW 8.1 mph - N/A   Clear
3:33 PM -3.8 °F -18.8 °F -12.8 °F 65% 30.43 in 10.0 mi WSW 8.1 mph - N/A   Clear
3:53 PM -4.9 °F -15.6 °F -13.0 °F 68% 30.43 in 10.0 mi SW 4.6 mph - N/A   Clear
4:12 PM -5.4 °F -18.0 °F -13.5 °F 68% 30.43 in 10.0 mi SW 5.8 mph - N/A   Clear
4:33 PM -5.3 °F -17.8 °F -13.0 °F 69% 30.43 in 10.0 mi SW 5.8 mph - N/A   Clear
4:53 PM -5.6 °F -14.3 °F -13.2 °F 70% 30.42 in 10.0 mi SSW 3.5 mph - N/A   Clear
5:12 PM -6.3 °F -17.3 °F -13.5 °F 71% 30.41 in 10.0 mi SSW 4.6 mph - N/A   Clear
5:33 PM -6.3 °F -19.1 °F -13.0 °F 73% 30.40 in 10.0 mi South 5.8 mph - N/A   Clear
5:53 PM -6.5 °F -17.5 °F -13.2 °F 73% 30.38 in 10.0 mi South 4.6 mph - N/A   Clear
6:13 PM -6.5 °F -19.3 °F -13.2 °F 73% 30.37 in 10.0 mi South 5.8 mph - N/A   Clear
6:32 PM -6.7 °F -21.0 °F -13.2 °F 73% 30.36 in 10.0 mi South 6.9 mph - N/A   Clear
6:53 PM -6.2 °F -24.8 °F -12.8 °F 73% 30.35 in 10.0 mi South 11.5 mph - N/A   Scattered Clouds
7:13 PM -5.1 °F -21.5 °F -11.4 °F 74% 30.35 in 10.0 mi South 9.2 mph - N/A   Overcast
7:32 PM -4.4 °F -19.5 °F -10.7 °F 74% 30.34 in 10.0 mi South 8.1 mph - N/A   Overcast
7:53 PM -4.0 °F -17.8 °F -10.5 °F 74% 30.32 in 10.0 mi South 6.9 mph - N/A   Overcast
8:13 PM -3.3 °F -15.4 °F -9.6 °F 74% 30.32 in 10.0 mi South 5.8 mph - N/A   Overcast
8:33 PM -3.1 °F -15.2 °F -9.4 °F 74% 30.31 in 10.0 mi South 5.8 mph - N/A   Mostly Cloudy
8:52 PM -2.7 °F -16.2 °F -8.9 °F 75% 30.31 in 10.0 mi South 6.9 mph - N/A   Mostly Cloudy
9:13 PM -2.4 °F -15.8 °F -8.5 °F 75% 30.30 in 10.0 mi South 6.9 mph - N/A   Overcast
9:33 PM -1.8 °F -16.4 °F -8.3 °F 74% 30.28 in 10.0 mi South 8.1 mph - N/A   Overcast
9:52 PM -1.3 °F -15.7 °F -7.8 °F 74% 30.26 in 10.0 mi South 8.1 mph - N/A   Overcast
10:13 PM -1.7 °F -17.3 °F -8.0 °F 75% 30.24 in 10.0 mi SSE 9.2 mph - N/A   Mostly Cloudy
10:33 PM -1.5 °F -16.0 °F -7.8 °F 75% 30.24 in 10.0 mi SSE 8.1 mph - N/A   Scattered Clouds
10:52 PM -0.8 °F -15.1 °F -6.9 °F 75% 30.24 in 10.0 mi South 8.1 mph - N/A   Mostly Cloudy
11:13 PM -0.4 °F -14.7 °F -6.7 °F 75% 30.21 in 10.0 mi South 8.1 mph - N/A   Overcast
11:33 PM 0.3 °F -12.6 °F -6.0 °F 75% 30.22 in 10.0 mi South 6.9 mph - N/A   Overcast
11:53 PM 0.9 °F -10.5 °F -5.6 °F 74% 30.22 in 10.0 mi South 5.8 mph - N/A   Overcast